| time (UTC) | temp F | wind direction | speed MPH | gust MPH | rain 1hr in | rain 24hr in | rain mn in | humidity % | barometer mb |
| 20260507095104 | 48 | 252 | 1.0 | 1.0 | 0.00 | 0.03 | 0.03 | 88 | 1003.5 |
| 20260507094600 | 48 | 283 | 2.0 | 2.0 | 0.00 | 0.03 | 0.03 | 88 | 1003.6 |
| 20260507094057 | 48 | 269 | 0.0 | 1.0 | 0.00 | 0.03 | 0.03 | 89 | 1003.3 |
| 20260507093554 | 48 | 214 | 0.0 | 1.0 | 0.00 | 0.03 | 0.03 | 89 | 1003.5 |
| 20260507093053 | 48 | 214 | 0.0 | 0.0 | 0.00 | 0.03 | 0.03 | 89 | 1003.3 |
| 20260507092549 | 48 | 209 | 0.0 | 0.0 | 0.00 | 0.03 | 0.03 | 90 | 1003.7 |
| 20260507092046 | 48 | 202 | 0.0 | 1.0 | 0.00 | 0.03 | 0.03 | 90 | 1003.6 |
| 20260507091543 | 48 | 206 | 0.0 | 0.0 | 0.00 | 0.03 | 0.03 | 91 | 1003.6 |
| 20260507091039 | 48 | 217 | 1.0 | 1.0 | 0.00 | 0.03 | 0.03 | 91 | 1003.8 |
| 20260507090534 | 48 | 203 | 0.0 | 1.0 | 0.00 | 0.03 | 0.03 | 91 | 1003.4 |
| 20260507090032 | 48 | 178 | 1.0 | 1.0 | 0.00 | 0.03 | 0.03 | 91 | 1003.6 |
| 20260507085529 | 48 | 210 | 0.0 | 1.0 | 0.00 | 0.03 | 0.03 | 91 | 1003.3 |
| 20260507085025 | 48 | 218 | 1.0 | 1.0 | 0.00 | 0.03 | 0.03 | 91 | 1003.4 |
| 20260507084522 | 48 | 205 | 0.0 | 0.0 | 0.00 | 0.03 | 0.03 | 90 | 1003.6 |
| 20260507084019 | 48 | 230 | 1.0 | 1.0 | 0.05 | 0.03 | 0.03 | 90 | 1003.3 |
| 20260507083515 | 49 | 218 | 0.0 | 1.0 | 0.05 | 0.03 | 0.03 | 90 | 1003.1 |
| 20260507083013 | 49 | 256 | 1.0 | 2.0 | 0.00 | 0.02 | 0.02 | 90 | 1003.2 |
| 20260507082509 | 49 | 225 | 1.0 | 2.0 | 0.00 | 0.02 | 0.02 | 89 | 1003.1 |
| 20260507082005 | 49 | 204 | 0.0 | 1.0 | 0.00 | 0.02 | 0.02 | 89 | 1003.1 |
| 20260507081501 | 49 | 211 | 1.0 | 1.0 | 0.00 | 0.02 | 0.02 | 89 | 1003.3 |
| 20260507080958 | 50 | 206 | 1.0 | 1.0 | 0.00 | 0.02 | 0.02 | 88 | 1002.9 |
| 20260507080454 | 50 | 254 | 1.0 | 2.0 | 0.07 | 0.02 | 0.02 | 87 | 1003.3 |
| 20260507075949 | 50 | 332 | 2.0 | 3.0 | 0.00 | 0.01 | 0.01 | 86 | 1003.1 |
| 20260507075446 | 50 | 202 | 1.0 | 1.0 | 0.00 | 0.01 | 0.01 | 86 | 1003.3 |
| 20260507074943 | 50 | 236 | 2.0 | 2.0 | 0.00 | 0.01 | 0.01 | 86 | 1003.2 |
| 20260507074440 | 50 | 244 | 2.0 | 2.0 | 0.00 | 0.01 | 0.01 | 87 | 1003.4 |
| 20260507073938 | 50 | 208 | 1.0 | 1.0 | 0.00 | 0.01 | 0.01 | 87 | 1003.2 |
| 20260507073434 | 50 | 219 | 0.0 | 1.0 | 0.00 | 0.01 | 0.01 | 87 | 1002.7 |
| 20260507072930 | 50 | 200 | 3.0 | 5.0 | 0.00 | 0.01 | 0.01 | 87 | 1002.9 |
| 20260507072428 | 50 | 234 | 1.0 | 1.0 | 0.00 | 0.01 | 0.01 | 87 | 1002.9 |
| 20260507071926 | 50 | 252 | 3.0 | 3.0 | 0.00 | 0.01 | 0.01 | 87 | 1002.5 |
| 20260507071422 | 50 | 228 | 1.0 | 1.0 | 0.00 | 0.01 | 0.01 | 88 | 1002.7 |
| 20260507070919 | 50 | 213 | 1.0 | 1.0 | 0.00 | 0.01 | 0.01 | 88 | 1003.0 |
| 20260507070416 | 50 | 218 | 1.0 | 1.0 | 0.00 | 0.01 | 0.01 | 88 | 1002.8 |
| 20260507065913 | 50 | 186 | 0.0 | 1.0 | 0.00 | 0.01 | 0.01 | 89 | 1002.9 |
| 20260507065410 | 50 | 218 | 1.0 | 1.0 | 0.00 | 0.01 | 0.01 | 90 | 1002.5 |
| 20260507064907 | 50 | 215 | 1.0 | 2.0 | 0.00 | 0.01 | 0.01 | 91 | 1002.6 |
| 20260507064405 | 50 | 258 | 2.0 | 2.0 | 0.00 | 0.01 | 0.01 | 93 | 1002.6 |
| 20260507063902 | 50 | 197 | 0.0 | 1.0 | 0.00 | 0.01 | 0.01 | 94 | 1002.8 |
| 20260507063359 | 50 | 209 | 1.0 | 1.0 | 0.00 | 0.01 | 0.01 | 95 | 1002.6 |
| 20260507062856 | 50 | 212 | 2.0 | 2.0 | 0.00 | 0.01 | 0.01 | 96 | 1002.4 |
| 20260507062353 | 50 | 217 | 1.0 | 1.0 | 0.00 | 0.01 | 0.01 | 97 | 1002.3 |
| 20260507061851 | 50 | 221 | 2.0 | 2.0 | 0.00 | 0.01 | 0.01 | 97 | 1002.4 |
| 20260507061348 | 50 | 210 | 0.0 | 0.0 | 0.00 | 0.01 | 0.01 | 97 | 1002.4 |
| 20260507060847 | 50 | 212 | 0.0 | 1.0 | 0.00 | 0.01 | 0.01 | 97 | 1002.3 |
| 20260507060343 | 50 | 215 | 0.0 | 0.0 | 0.00 | 0.01 | 0.01 | 97 | 1002.5 |
| 20260507055840 | 50 | 222 | 2.0 | 2.0 | 0.00 | 0.01 | 0.01 | 97 | 1002.8 |
| 20260507055335 | 50 | 218 | 1.0 | 2.0 | 0.00 | 0.01 | 0.01 | 97 | 1002.6 |
| 20260507054832 | 50 | 266 | 2.0 | 2.0 | 0.00 | 0.01 | 0.01 | 97 | 1002.7 |
| 20260507054328 | 51 | 215 | 0.0 | 0.0 | 0.00 | 0.01 | 0.01 | 98 | 1002.7 |
| 20260507053826 | 51 | 217 | 1.0 | 2.0 | 0.00 | 0.01 | 0.01 | 98 | 1002.9 |
| 20260507053323 | 51 | 211 | 1.0 | 1.0 | 0.00 | 0.01 | 0.01 | 98 | 1002.9 |
| 20260507052822 | 51 | 261 | 1.0 | 1.0 | 0.00 | 0.01 | 0.01 | 98 | 1002.8 |
| 20260507052318 | 51 | 195 | 0.0 | 0.0 | 0.00 | 0.01 | 0.01 | 98 | 1003.1 |
| 20260507051816 | 51 | 207 | 0.0 | 1.0 | 0.00 | 0.01 | 0.01 | 98 | 1003.1 |
| 20260507051313 | 51 | 211 | 1.0 | 1.0 | 0.00 | 0.01 | 0.01 | 98 | 1003.1 |
| 20260507050810 | 52 | 206 | 1.0 | 2.0 | 0.00 | 0.01 | 0.01 | 98 | 1002.8 |
| 20260507050306 | 52 | 229 | 1.0 | 2.0 | 0.00 | 0.01 | 0.01 | 98 | 1002.9 |
| 20260507045803 | 52 | 236 | 0.0 | 1.0 | 0.00 | 0.01 | 0.01 | 98 | 1002.8 |
| 20260507045259 | 52 | 204 | 0.0 | 0.0 | 0.00 | 0.01 | 0.01 | 98 | 1002.8 |
| 20260507044757 | 52 | 228 | 1.0 | 1.0 | 0.00 | 0.01 | 0.01 | 98 | 1002.8 |
| 20260507044253 | 52 | 216 | 0.0 | 0.0 | 0.00 | 0.01 | 0.01 | 98 | 1002.7 |
| 20260507043749 | 52 | 194 | 1.0 | 2.0 | 0.00 | 0.01 | 0.01 | 98 | 1002.9 |
| 20260507043246 | 52 | 218 | 0.0 | 1.0 | 0.00 | 0.01 | 0.01 | 98 | 1002.7 |
| 20260507042742 | 52 | 216 | 1.0 | 1.0 | 0.00 | 0.01 | 0.01 | 98 | 1002.6 |
| 20260507042237 | 52 | 266 | 2.0 | 2.0 | 0.00 | 0.01 | 0.01 | 99 | 1003.0 |
| 20260507041736 | 52 | 188 | 0.0 | 0.0 | 0.05 | 0.01 | 0.01 | 99 | 1003.0 |
| 20260507041232 | 53 | 217 | 1.0 | 1.0 | 0.05 | 0.01 | 0.01 | 99 | 1002.8 |
| 20260507040729 | 53 | 211 | 1.0 | 1.0 | 0.00 | 0.00 | 0.00 | 99 | 1002.9 |
| 20260507040225 | 53 | 231 | 3.0 | 5.0 | 0.00 | 0.00 | 0.00 | 99 | 1002.8 |
| 20260507035721 | 54 | 348 | 2.0 | 6.0 | 0.00 | 0.33 | 0.33 | 99 | 1002.6 |
| 20260507035217 | 55 | 333 | 2.0 | 2.0 | 0.00 | 0.33 | 0.33 | 99 | 1002.5 |
| 20260507034714 | 56 | 203 | 0.0 | 0.0 | 0.00 | 0.33 | 0.33 | 99 | 1002.2 |
| 20260507034211 | 56 | 190 | 1.0 | 2.0 | 0.00 | 0.33 | 0.33 | 99 | 1002.0 |
| 20260507033710 | 57 | 217 | 1.0 | 1.0 | 0.00 | 0.33 | 0.33 | 99 | 1001.9 |
| 20260507033207 | 57 | 239 | 2.0 | 3.0 | 0.00 | 0.33 | 0.33 | 99 | 1001.8 |
| 20260507032704 | 58 | 206 | 3.0 | 3.0 | 0.00 | 0.33 | 0.33 | 99 | 1001.7 |
| 20260507032159 | 59 | 202 | 0.0 | 1.0 | 0.00 | 0.33 | 0.33 | 99 | 1001.6 |
| 20260507031657 | 59 | 226 | 1.0 | 1.0 | 0.00 | 0.33 | 0.33 | 99 | 1001.6 |
| 20260507031153 | 59 | 229 | 2.0 | 3.0 | 0.00 | 0.33 | 0.33 | 99 | 1001.6 |
| 20260507030650 | 59 | 217 | 0.0 | 1.0 | 0.00 | 0.33 | 0.33 | 99 | 1001.7 |
| 20260507030148 | 59 | 217 | 0.0 | 1.0 | 0.00 | 0.33 | 0.33 | 99 | 1001.6 |
| 20260507025645 | 59 | 213 | 1.0 | 1.0 | 0.00 | 0.33 | 0.33 | 99 | 1001.3 |
| 20260507025142 | 59 | 213 | 3.0 | 3.0 | 0.00 | 0.33 | 0.33 | 99 | 1001.5 |
| 20260507024640 | 59 | 220 | 1.0 | 1.0 | 0.00 | 0.33 | 0.33 | 99 | 1001.3 |
| 20260507024137 | 59 | 166 | 2.0 | 3.0 | 0.00 | 0.33 | 0.33 | 99 | 1001.3 |
| 20260507023632 | 59 | 243 | 5.0 | 8.0 | 0.00 | 0.33 | 0.33 | 99 | 1001.3 |
| 20260507023130 | 59 | 209 | 1.0 | 2.0 | 0.00 | 0.33 | 0.33 | 99 | 1001.5 |
| 20260507022627 | 59 | 219 | 1.0 | 2.0 | 0.00 | 0.33 | 0.33 | 99 | 1001.2 |
| 20260507022122 | 59 | 217 | 3.0 | 3.0 | 0.00 | 0.33 | 0.33 | 99 | 1001.1 |
| 20260507021619 | 59 | 219 | 2.0 | 2.0 | 0.00 | 0.33 | 0.33 | 99 | 1001.3 |
| 20260507021115 | 59 | 203 | 2.0 | 5.0 | 0.00 | 0.33 | 0.33 | 99 | 1001.0 |
| 20260507020613 | 59 | 209 | 1.0 | 1.0 | 0.00 | 0.33 | 0.33 | 99 | 1001.3 |
| 20260507020109 | 59 | 213 | 5.0 | 6.0 | 0.00 | 0.33 | 0.33 | 99 | 1001.3 |
| 20260507015607 | 59 | 204 | 0.0 | 0.0 | 0.00 | 0.33 | 0.33 | 99 | 1001.6 |
| 20260507015104 | 59 | 208 | 3.0 | 5.0 | 0.00 | 0.33 | 0.33 | 99 | 1001.7 |
| 20260507014601 | 59 | 198 | 1.0 | 1.0 | 0.00 | 0.33 | 0.33 | 99 | 1001.4 |
| 20260507014056 | 59 | 211 | 1.0 | 1.0 | 0.00 | 0.33 | 0.33 | 99 | 1001.5 |
| 20260507013553 | 59 | 203 | 1.0 | 1.0 | 0.00 | 0.33 | 0.33 | 99 | 1001.3 |
| 20260507013051 | 59 | 216 | 0.0 | 0.0 | 0.00 | 0.33 | 0.33 | 99 | 1001.4 |
| 20260507012548 | 59 | 191 | 2.0 | 2.0 | 0.00 | 0.33 | 0.33 | 99 | 1001.5 |
| 20260507012044 | 59 | 215 | 2.0 | 3.0 | 0.00 | 0.33 | 0.33 | 99 | 1001.4 |
| 20260507011542 | 59 | 190 | 1.0 | 2.0 | 0.00 | 0.33 | 0.33 | 99 | 1001.6 |
| 20260507011038 | 59 | 213 | 2.0 | 2.0 | 0.00 | 0.33 | 0.33 | 99 | 1001.5 |
| 20260507010532 | 59 | 221 | 1.0 | 1.0 | 0.00 | 0.33 | 0.33 | 99 | 1001.7 |
| 20260507010029 | 59 | 207 | 0.0 | 0.0 | 0.00 | 0.33 | 0.33 | 99 | 1001.7 |
| 20260507005526 | 59 | 215 | 1.0 | 1.0 | 0.00 | 0.33 | 0.33 | 99 | 1001.6 |
| 20260507005023 | 59 | 222 | 5.0 | 7.0 | 0.00 | 0.33 | 0.33 | 99 | 1001.7 |
| 20260507004520 | 59 | 210 | 4.0 | 5.0 | 0.00 | 0.33 | 0.33 | 99 | 1001.5 |
| 20260507004017 | 59 | 221 | 3.0 | 5.0 | 0.00 | 0.33 | 0.33 | 99 | 1001.2 |
| 20260507003512 | 59 | 223 | 5.0 | 6.0 | 0.00 | 0.33 | 0.33 | 99 | 1001.5 |
| 20260507003008 | 59 | 161 | 3.0 | 3.0 | 0.00 | 0.33 | 0.33 | 99 | 1001.7 |
| 20260507002504 | 59 | 209 | 0.0 | 1.0 | 0.00 | 0.33 | 0.33 | 99 | 1001.4 |
| 20260507002001 | 59 | 223 | 1.0 | 1.0 | 0.00 | 0.33 | 0.33 | 99 | 1001.5 |
| 20260507001457 | 59 | 223 | 5.0 | 7.0 | 0.00 | 0.33 | 0.33 | 99 | 1001.5 |
| 20260507000955 | 59 | 181 | 1.0 | 2.0 | 0.00 | 0.33 | 0.33 | 99 | 1001.5 |
| 20260507000450 | 59 | 221 | 3.0 | 3.0 | 0.00 | 0.33 | 0.33 | 99 | 1001.2 |
| 20260506235946 | 59 | 197 | 0.0 | 0.0 | 0.07 | 0.33 | 0.33 | 99 | 1001.1 |
| 20260506235444 | 59 | 199 | 3.0 | 3.0 | 0.07 | 0.33 | 0.33 | 99 | 1001.4 |
| 20260506234939 | 59 | 181 | 1.0 | 1.0 | 0.00 | 0.32 | 0.32 | 99 | 1001.2 |
| 20260506234437 | 59 | 198 | 0.0 | 0.0 | 0.00 | 0.32 | 0.32 | 99 | 1001.2 |
| 20260506233934 | 59 | 226 | 0.0 | 1.0 | 0.00 | 0.32 | 0.32 | 99 | 1001.2 |
| 20260506233431 | 59 | 212 | 1.0 | 1.0 | 0.05 | 0.32 | 0.32 | 99 | 1001.4 |
| 20260506232927 | 59 | 197 | 0.0 | 1.0 | 0.19 | 0.32 | 0.32 | 99 | 1001.3 |
| 20260506232424 | 59 | 205 | 0.0 | 0.0 | 0.19 | 0.31 | 0.31 | 99 | 1001.3 |
| 20260506231919 | 59 | 176 | 1.0 | 1.0 | 0.05 | 0.29 | 0.29 | 99 | 1001.4 |
| 20260506231417 | 59 | 194 | 1.0 | 1.0 | 0.07 | 0.28 | 0.28 | 99 | 1001.2 |
| 20260506230914 | 59 | 203 | 0.0 | 1.0 | 0.12 | 0.28 | 0.28 | 99 | 1001.5 |
| 20260506230411 | 59 | 197 | 1.0 | 2.0 | 0.05 | 0.27 | 0.27 | 99 | 1001.7 |
| 20260506225907 | 59 | 162 | 1.0 | 1.0 | 0.07 | 0.26 | 0.26 | 99 | 1001.6 |
| 20260506225405 | 60 | 212 | 1.0 | 1.0 | 0.12 | 0.26 | 0.26 | 99 | 1001.4 |
| 20260506224901 | 60 | 171 | 2.0 | 2.0 | 0.12 | 0.25 | 0.25 | 99 | 1001.7 |
| 20260506224359 | 60 | 175 | 0.0 | 1.0 | 0.12 | 0.24 | 0.24 | 99 | 1001.4 |
| 20260506223855 | 60 | 218 | 3.0 | 3.0 | 0.17 | 0.23 | 0.23 | 99 | 1001.6 |
| 20260506223350 | 60 | 193 | 0.0 | 1.0 | 0.12 | 0.22 | 0.22 | 99 | 1001.6 |
| 20260506222848 | 60 | 202 | 0.0 | 0.0 | 0.07 | 0.20 | 0.20 | 98 | 1001.9 |
| 20260506222343 | 60 | 239 | 2.0 | 3.0 | 0.00 | 0.19 | 0.19 | 98 | 1001.6 |
| 20260506221841 | 60 | 230 | 5.0 | 6.0 | 0.05 | 0.19 | 0.19 | 98 | 1001.4 |
| 20260506221339 | 60 | 183 | 1.0 | 2.0 | 0.05 | 0.19 | 0.19 | 98 | 1001.6 |
| 20260506220836 | 60 | 211 | 4.0 | 6.0 | 0.00 | 0.18 | 0.18 | 98 | 1001.8 |
| 20260506220331 | 60 | 196 | 0.0 | 1.0 | 0.00 | 0.18 | 0.18 | 98 | 1001.9 |
| 20260506215828 | 60 | 216 | 4.0 | 7.0 | 0.00 | 0.18 | 0.18 | 98 | 1002.0 |
| 20260506215324 | 60 | 231 | 2.0 | 2.0 | 0.00 | 0.18 | 0.18 | 98 | 1002.0 |
| 20260506214820 | 60 | 169 | 2.0 | 3.0 | 0.00 | 0.18 | 0.18 | 98 | 1001.9 |
| 20260506214317 | 60 | 213 | 4.0 | 6.0 | 0.00 | 0.18 | 0.18 | 98 | 1002.1 |
| 20260506213815 | 60 | 101 | 3.0 | 5.0 | 0.00 | 0.18 | 0.18 | 98 | 1002.1 |
| 20260506213312 | 60 | 202 | 0.0 | 0.0 | 0.07 | 0.18 | 0.18 | 98 | 1002.1 |
| 20260506212810 | 60 | 193 | 0.0 | 0.0 | 0.07 | 0.18 | 0.18 | 98 | 1002.0 |
| 20260506212306 | 60 | 185 | 3.0 | 5.0 | 0.00 | 0.17 | 0.17 | 97 | 1002.4 |
| 20260506211800 | 60 | 215 | 3.0 | 3.0 | 0.00 | 0.17 | 0.17 | 97 | 1002.4 |
| 20260506211257 | 60 | 205 | 1.0 | 2.0 | 0.07 | 0.17 | 0.17 | 97 | 1002.2 |
| 20260506210754 | 61 | 197 | 2.0 | 3.0 | 0.12 | 0.17 | 0.17 | 97 | 1002.6 |
| 20260506210251 | 61 | 215 | 2.0 | 2.0 | 0.17 | 0.16 | 0.16 | 97 | 1002.5 |
| 20260506205748 | 61 | 187 | 2.0 | 3.0 | 0.12 | 0.15 | 0.15 | 97 | 1002.6 |
| 20260506205244 | 61 | 176 | 3.0 | 3.0 | 0.12 | 0.14 | 0.14 | 97 | 1002.3 |
| 20260506204741 | 61 | 203 | 0.0 | 0.0 | 0.12 | 0.13 | 0.13 | 97 | 1002.5 |
| 20260506204238 | 61 | 208 | 2.0 | 2.0 | 0.12 | 0.12 | 0.12 | 96 | 1002.6 |
| 20260506203736 | 61 | 215 | 1.0 | 1.0 | 0.07 | 0.11 | 0.11 | 96 | 1002.5 |
| 20260506203233 | 61 | 161 | 2.0 | 2.0 | 0.12 | 0.11 | 0.11 | 96 | 1002.4 |
| 20260506202730 | 61 | 196 | 1.0 | 1.0 | 0.12 | 0.10 | 0.10 | 96 | 1002.3 |
| 20260506202226 | 62 | 210 | 0.0 | 1.0 | 0.12 | 0.09 | 0.09 | 96 | 1002.5 |
| 20260506201724 | 62 | 198 | 2.0 | 2.0 | 0.12 | 0.08 | 0.08 | 95 | 1002.3 |
| 20260506201220 | 62 | 219 | 0.0 | 1.0 | 0.14 | 0.07 | 0.07 | 95 | 1002.4 |
| 20260506200717 | 62 | 213 | 0.0 | 1.0 | 0.07 | 0.06 | 0.06 | 95 | 1002.6 |
| 20260506200214 | 62 | 195 | 1.0 | 1.0 | 0.00 | 0.05 | 0.05 | 95 | 1002.4 |
| 20260506195710 | 62 | 231 | 1.0 | 2.0 | 0.00 | 0.05 | 0.05 | 94 | 1002.6 |
| 20260506195207 | 62 | 197 | 0.0 | 0.0 | 0.05 | 0.05 | 0.05 | 94 | 1002.3 |
| 20260506194704 | 63 | 207 | 1.0 | 1.0 | 0.07 | 0.04 | 0.04 | 93 | 1002.4 |
| 20260506194200 | 63 | 206 | 1.0 | 1.0 | 0.07 | 0.04 | 0.04 | 92 | 1002.3 |
| 20260506193658 | 63 | 187 | 0.0 | 1.0 | 0.07 | 0.04 | 0.04 | 91 | 1002.6 |
| 20260506193155 | 64 | 250 | 3.0 | 5.0 | 0.05 | 0.03 | 0.03 | 89 | 1002.3 |
| 20260506192652 | 65 | 199 | 1.0 | 1.0 | 0.07 | 0.02 | 0.02 | 87 | 1002.3 |
| 20260506192148 | 66 | 204 | 1.0 | 1.0 | 0.07 | 0.02 | 0.02 | 85 | 1002.5 |
| 20260506191645 | 67 | 219 | 0.0 | 1.0 | 0.00 | 0.01 | 0.01 | 81 | 1002.6 |
| 20260506191141 | 67 | 229 | 1.0 | 2.0 | 0.05 | 0.01 | 0.01 | 79 | 1002.5 |
| 20260506190639 | 68 | 195 | 2.0 | 2.0 | 0.05 | 0.01 | 0.01 | 77 | 1002.6 |
| 20260506190135 | 68 | 219 | 1.0 | 2.0 | 0.00 | 0.00 | 0.00 | 76 | 1002.6 |
| 20260506185632 | 69 | 246 | 5.0 | 9.0 | 0.00 | 0.00 | 0.00 | 73 | 1002.5 |
| 20260506185128 | 70 | 206 | 0.0 | 1.0 | 0.00 | 0.00 | 0.00 | 72 | 1002.7 |
| 20260506184626 | 70 | 196 | 1.0 | 2.0 | 0.00 | 0.00 | 0.00 | 68 | 1002.6 |
| 20260506184123 | 70 | 202 | 1.0 | 1.0 | 0.00 | 0.00 | 0.00 | 68 | 1002.4 |
| 20260506183620 | 70 | 228 | 3.0 | 3.0 | 0.00 | 0.00 | 0.00 | 67 | 1002.3 |
| 20260506183115 | 71 | 261 | 5.0 | 6.0 | 0.00 | 0.00 | 0.00 | 66 | 1002.4 |
| 20260506182614 | 71 | 240 | 3.0 | 5.0 | 0.00 | 0.00 | 0.00 | 66 | 1002.7 |
| 20260506182110 | 70 | 214 | 2.0 | 3.0 | 0.00 | 0.00 | 0.00 | 66 | 1002.5 |
| 20260506181608 | 71 | 224 | 3.0 | 5.0 | 0.00 | 0.00 | 0.00 | 66 | 1002.6 |
| 20260506181105 | 72 | 225 | 4.0 | 6.0 | 0.00 | 0.00 | 0.00 | 63 | 1002.5 |
| 20260506180602 | 72 | 130 | 1.0 | 2.0 | 0.00 | 0.00 | 0.00 | 60 | 1002.6 |
| 20260506180058 | 73 | 216 | 2.0 | 2.0 | 0.00 | 0.00 | 0.00 | 60 | 1002.6 |
| 20260506175554 | 73 | 199 | 2.0 | 5.0 | 0.00 | 0.00 | 0.00 | 61 | 1002.4 |
| 20260506175051 | 73 | 265 | 1.0 | 2.0 | 0.00 | 0.00 | 0.00 | 62 | 1002.8 |
| 20260506174550 | 73 | 217 | 4.0 | 6.0 | 0.00 | 0.00 | 0.00 | 61 | 1002.7 |
| 20260506174045 | 73 | 226 | 2.0 | 3.0 | 0.00 | 0.00 | 0.00 | 61 | 1002.5 |
| 20260506173543 | 74 | 155 | 8.0 | 11.0 | 0.00 | 0.00 | 0.00 | 60 | 1002.5 |
| 20260506173040 | 75 | 191 | 1.0 | 2.0 | 0.00 | 0.00 | 0.00 | 58 | 1002.7 |
| 20260506172537 | 75 | 200 | 2.0 | 2.0 | 0.00 | 0.00 | 0.00 | 58 | 1002.5 |
| 20260506172033 | 74 | 177 | 4.0 | 5.0 | 0.00 | 0.00 | 0.00 | 58 | 1002.8 |
| 20260506171531 | 75 | 235 | 4.0 | 5.0 | 0.00 | 0.00 | 0.00 | 57 | 1002.7 |
| 20260506171028 | 74 | 232 | 4.0 | 6.0 | 0.00 | 0.00 | 0.00 | 59 | 1002.8 |
| 20260506170526 | 74 | 131 | 2.0 | 2.0 | 0.00 | 0.00 | 0.00 | 59 | 1002.9 |
| 20260506170024 | 73 | 244 | 5.0 | 7.0 | 0.00 | 0.00 | 0.00 | 60 | 1003.1 |
| 20260506165522 | 72 | 202 | 0.0 | 1.0 | 0.00 | 0.00 | 0.00 | 61 | 1003.2 |
| 20260506165017 | 72 | 55 | 5.0 | 9.0 | 0.00 | 0.00 | 0.00 | 61 | 1003.2 |
| 20260506164514 | 72 | 198 | 1.0 | 2.0 | 0.00 | 0.00 | 0.00 | 61 | 1003.4 |
| 20260506164012 | 73 | 240 | 7.0 | 8.0 | 0.00 | 0.00 | 0.00 | 61 | 1003.5 |
| 20260506163508 | 73 | 220 | 4.0 | 5.0 | 0.00 | 0.00 | 0.00 | 61 | 1003.3 |
| 20260506163004 | 73 | 185 | 0.0 | 0.0 | 0.00 | 0.00 | 0.00 | 62 | 1003.4 |
| 20260506162500 | 73 | 240 | 5.0 | 10.0 | 0.00 | 0.00 | 0.00 | 62 | 1003.5 |
| 20260506161957 | 73 | 200 | 3.0 | 5.0 | 0.00 | 0.00 | 0.00 | 63 | 1003.6 |
| 20260506161455 | 73 | 201 | 4.0 | 7.0 | 0.00 | 0.00 | 0.00 | 63 | 1003.8 |
| 20260506160952 | 73 | 229 | 3.0 | 3.0 | 0.00 | 0.00 | 0.00 | 64 | 1003.8 |
| 20260506160449 | 73 | 259 | 2.0 | 2.0 | 0.00 | 0.00 | 0.00 | 63 | 1003.9 |
| 20260506155946 | 73 | 152 | 1.0 | 1.0 | 0.00 | 0.00 | 0.00 | 64 | 1004.0 |
| 20260506155444 | 72 | 190 | 0.0 | 1.0 | 0.00 | 0.00 | 0.00 | 65 | 1004.1 |
| 20260506153610 | 71 | 215 | 2.0 | 3.0 | 0.00 | 0.00 | 0.00 | 65 | 1004.7 |
| 20260506153108 | 71 | 202 | 4.0 | 7.0 | 0.00 | 0.00 | 0.00 | 65 | 1004.4 |
| 20260506152605 | 71 | 227 | 5.0 | 8.0 | 0.00 | 0.00 | 0.00 | 66 | 1004.9 |
| 20260506152103 | 72 | 220 | 3.0 | 5.0 | 0.00 | 0.00 | 0.00 | 66 | 1004.9 |
| 20260506151601 | 72 | 110 | 1.0 | 2.0 | 0.00 | 0.00 | 0.00 | 67 | 1004.8 |
| 20260506151057 | 72 | 201 | 1.0 | 2.0 | 0.00 | 0.00 | 0.00 | 67 | 1004.6 |
| 20260506150554 | 71 | 180 | 4.0 | 6.0 | 0.00 | 0.00 | 0.00 | 67 | 1004.5 |
| 20260506150051 | 71 | 199 | 0.0 | 1.0 | 0.00 | 0.00 | 0.00 | 68 | 1004.9 |
| 20260506145547 | 71 | 205 | 3.0 | 3.0 | 0.00 | 0.00 | 0.00 | 68 | 1005.0 |
| 20260506145045 | 70 | 238 | 2.0 | 2.0 | 0.00 | 0.00 | 0.00 | 70 | 1004.8 |
| 20260506144542 | 70 | 190 | 4.0 | 6.0 | 0.00 | 0.00 | 0.00 | 70 | 1004.5 |
| 20260506144039 | 69 | 222 | 2.0 | 2.0 | 0.00 | 0.00 | 0.00 | 71 | 1004.9 |
| 20260506143537 | 70 | 234 | 4.0 | 6.0 | 0.00 | 0.00 | 0.00 | 70 | 1004.9 |
| 20260506143035 | 69 | 240 | 0.0 | 2.0 | 0.00 | 0.00 | 0.00 | 71 | 1004.7 |
| 20260506142532 | 69 | 264 | 3.0 | 5.0 | 0.00 | 0.00 | 0.00 | 71 | 1004.6 |
| 20260506142030 | 70 | 90 | 4.0 | 7.0 | 0.00 | 0.00 | 0.00 | 70 | 1004.5 |
| 20260506141528 | 70 | 192 | 0.0 | 1.0 | 0.00 | 0.00 | 0.00 | 71 | 1004.5 |
| 20260506141026 | 69 | 217 | 1.0 | 2.0 | 0.00 | 0.00 | 0.00 | 71 | 1004.6 |
| 20260506140523 | 69 | 221 | 2.0 | 2.0 | 0.00 | 0.00 | 0.00 | 72 | 1004.6 |
| 20260506140020 | 69 | 198 | 2.0 | 2.0 | 0.00 | 0.00 | 0.00 | 72 | 1004.7 |
| 20260506135517 | 68 | 218 | 1.0 | 1.0 | 0.00 | 0.00 | 0.00 | 74 | 1004.9 |
| 20260506135013 | 67 | 210 | 2.0 | 2.0 | 0.00 | 0.00 | 0.00 | 74 | 1005.0 |
| 20260506134509 | 67 | 236 | 1.0 | 2.0 | 0.00 | 0.00 | 0.00 | 75 | 1005.0 |
| 20260506134006 | 68 | 221 | 4.0 | 6.0 | 0.00 | 0.00 | 0.00 | 74 | 1005.0 |
| 20260506133503 | 67 | 239 | 1.0 | 2.0 | 0.00 | 0.00 | 0.00 | 75 | 1005.2 |
| 20260506133000 | 66 | 173 | 2.0 | 3.0 | 0.00 | 0.00 | 0.00 | 76 | 1005.1 |
| 20260506132457 | 66 | 190 | 2.0 | 3.0 | 0.00 | 0.00 | 0.00 | 76 | 1005.3 |
| 20260506131954 | 66 | 219 | 1.0 | 2.0 | 0.00 | 0.00 | 0.00 | 76 | 1005.3 |
| 20260506131451 | 66 | 198 | 2.0 | 2.0 | 0.00 | 0.00 | 0.00 | 76 | 1005.3 |
| 20260506130948 | 66 | 214 | 2.0 | 2.0 | 0.00 | 0.00 | 0.00 | 76 | 1005.0 |
| 20260506130444 | 66 | 267 | 3.0 | 5.0 | 0.00 | 0.00 | 0.00 | 76 | 1005.3 |
| 20260506125942 | 66 | 196 | 4.0 | 6.0 | 0.00 | 0.00 | 0.00 | 76 | 1005.5 |
| 20260506125440 | 66 | 208 | 2.0 | 2.0 | 0.00 | 0.00 | 0.00 | 76 | 1004.9 |
| 20260506124938 | 66 | 105 | 2.0 | 2.0 | 0.00 | 0.00 | 0.00 | 76 | 1005.4 |
| 20260506124435 | 66 | 190 | 0.0 | 1.0 | 0.00 | 0.00 | 0.00 | 77 | 1005.1 |
| 20260506123933 | 66 | 229 | 3.0 | 5.0 | 0.00 | 0.00 | 0.00 | 76 | 1005.2 |
| 20260506123431 | 66 | 120 | 2.0 | 3.0 | 0.00 | 0.00 | 0.00 | 77 | 1005.3 |
| 20260506122928 | 66 | 209 | 5.0 | 7.0 | 0.00 | 0.00 | 0.00 | 77 | 1005.5 |
| 20260506122425 | 66 | 190 | 2.0 | 2.0 | 0.00 | 0.00 | 0.00 | 77 | 1005.3 |
| 20260506121924 | 66 | 222 | 1.0 | 2.0 | 0.00 | 0.00 | 0.00 | 76 | 1005.4 |
| 20260506121420 | 65 | 257 | 1.0 | 1.0 | 0.00 | 0.00 | 0.00 | 77 | 1005.3 |
| 20260506120917 | 64 | 202 | 0.0 | 1.0 | 0.00 | 0.00 | 0.00 | 79 | 1005.4 |
| 20260506120414 | 64 | 197 | 2.0 | 2.0 | 0.00 | 0.00 | 0.00 | 79 | 1005.3 |
| 20260506115911 | 64 | 201 | 2.0 | 2.0 | 0.00 | 0.00 | 0.00 | 79 | 1005.8 |
| 20260506115409 | 64 | 247 | 3.0 | 3.0 | 0.00 | 0.00 | 0.00 | 79 | 1005.6 |
| 20260506114908 | 64 | 207 | 1.0 | 1.0 | 0.00 | 0.00 | 0.00 | 80 | 1005.3 |
| 20260506114405 | 64 | 228 | 4.0 | 5.0 | 0.00 | 0.00 | 0.00 | 79 | 1005.6 |
| 20260506113904 | 63 | 171 | 1.0 | 1.0 | 0.00 | 0.00 | 0.00 | 80 | 1005.5 |
| 20260506113400 | 63 | 203 | 1.0 | 1.0 | 0.00 | 0.00 | 0.00 | 80 | 1005.9 |
| 20260506112856 | 63 | 308 | 4.0 | 5.0 | 0.00 | 0.00 | 0.00 | 80 | 1005.8 |
| 20260506112354 | 63 | 215 | 1.0 | 1.0 | 0.00 | 0.00 | 0.00 | 80 | 1005.6 |
| 20260506111851 | 63 | 217 | 1.0 | 1.0 | 0.00 | 0.00 | 0.00 | 80 | 1005.5 |
| 20260506111350 | 63 | 198 | 0.0 | 0.0 | 0.00 | 0.00 | 0.00 | 80 | 1005.7 |
| 20260506110847 | 63 | 208 | 3.0 | 5.0 | 0.00 | 0.00 | 0.00 | 81 | 1005.5 |
| 20260506110344 | 62 | 191 | 0.0 | 0.0 | 0.00 | 0.00 | 0.00 | 81 | 1005.7 |
| 20260506105841 | 62 | 190 | 1.0 | 2.0 | 0.00 | 0.00 | 0.00 | 82 | 1005.8 |
| 20260506105337 | 62 | 192 | 0.0 | 0.0 | 0.00 | 0.00 | 0.00 | 82 | 1005.7 |
| 20260506104835 | 62 | 151 | 2.0 | 3.0 | 0.00 | 0.00 | 0.00 | 82 | 1006.1 |
| 20260506104332 | 62 | 206 | 2.0 | 2.0 | 0.00 | 0.00 | 0.00 | 82 | 1005.9 |
| 20260506103830 | 62 | 194 | 2.0 | 2.0 | 0.00 | 0.00 | 0.00 | 82 | 1005.6 |
| 20260506103327 | 62 | 195 | 2.0 | 3.0 | 0.00 | 0.00 | 0.00 | 82 | 1005.6 |
| 20260506102824 | 62 | 230 | 1.0 | 1.0 | 0.00 | 0.00 | 0.00 | 82 | 1005.5 |
| 20260506102322 | 61 | 170 | 2.0 | 3.0 | 0.00 | 0.00 | 0.00 | 82 | 1005.8 |
| 20260506101819 | 61 | 212 | 1.0 | 2.0 | 0.00 | 0.00 | 0.00 | 82 | 1005.8 |
| 20260506101315 | 61 | 201 | 3.0 | 5.0 | 0.00 | 0.00 | 0.00 | 82 | 1005.9 |
| 20260506100814 | 61 | 217 | 3.0 | 3.0 | 0.00 | 0.00 | 0.00 | 82 | 1005.7 |
| 20260506100312 | 61 | 169 | 1.0 | 1.0 | 0.00 | 0.00 | 0.00 | 82 | 1005.5 |
| 20260506095809 | 61 | 214 | 0.0 | 1.0 | 0.00 | 0.00 | 0.00 | 82 | 1005.7 |